User: anonymous   Login
Location: Unspecified
(0.0000°N, 0.0000°E)
Time: 17:02:52
(UTC+00:00)
Language:

Cosmos 1574 - Orbit

View from above orbital plane
View from above orbital plane
View from above satellite
View from above satellite

Ground track
Ground track

The orbit data is extracted from the following two-line orbital elements,

1 15055U 84062A   18174.77258764 +.00000015 +00000-0 -15234-6 0  9991
2 15055 082.9584 071.2102 0025972 257.9502 134.6837 13.74301528705088
Epoch (UTC): 23 June 2018 18:32:31
Eccentricity: 0.0025972
inclination: 82.9584°
perigee height: 965 km
apogee height: 1003 km
right ascension of ascending node: 71.2102°
argument of perigee: 257.9502°
revolutions per day: 13.74301528
mean anomaly at epoch: 134.6837°
orbit number at epoch: 70508

The dashed part of the orbit path shows where the satellite is in the earth's shadow,  

DLR